#timestamp,LO_Frequency,Hit,StdDev 
1667397615.8,286047003.7,N
1667397635.7,286047003.0,N
1667397655.5,286046998.6,N
1667397675.3,286046998.1,N
1667397695.2,286046998.8,N
1667397715.0,286047002.7,N
1667397715.9,286047002.7,N
1667397735.8,286047000.3,N
1667397755.6,286047001.9,N
1667397775.4,286047000.6,N
1667397795.3,286046997.6,N
1667397815.1,286046999.5,N
1667397835.8,286046996.3,N
1667397855.7,286047000.2,N
1667397875.5,286047001.2,N
1667397895.4,286046997.2,N
1667397915.2,286046995.2,N
1667397935.0,286046994.6,N
1667397935.9,286046994.6,N
1667397955.8,286046998.0,N
1667397975.6,286046997.8,N
1667397995.4,286046995.8,N
1667398015.3,286046990.5,N
1667398035.1,286046987.2,Y
1667398055.9,286046992.3,P
1667398075.7,286046990.1,N
1667398095.5,286046991.6,N
1667398115.4,286046990.8,N
1667398135.2,286046988.9,Y
1667398155.1,286046999.5,P
1667398156.0,286046999.5,N
1667398175.8,286046998.4,N
1667398195.6,286046998.9,N
1667398215.5,286046994.0,N
1667398235.3,286046997.6,N
1667398255.1,286046995.2,N
1667398275.9,286046990.1,Y
1667398295.7,286046996.1,P
1667398315.6,286046995.9,P
1667398335.4,286046991.8,P
1667398355.2,286046991.9,Y
1667398375.1,286046997.0,P
1667398376.0,286046997.0,P
1667398395.8,286046993.9,P
1667398415.6,286046991.6,Y
1667398435.5,286046994.4,P
1667398455.3,286046990.9,P
1667398475.2,286046992.8,P
1667398495.9,286046990.4,Y
1667398515.7,286047000.3,P
1667398535.6,286046996.9,N
1667398555.4,286046994.8,N
1667398575.3,286046993.2,N
1667398595.1,286046988.2,Y
1667398596.0,286046988.2,P
1667398615.8,286046990.9,N
1667398635.7,286046991.3,N
1667398655.5,286046996.4,N
1667398675.4,286046996.3,N
1667398695.2,286046993.0,N
1667398715.0,286046991.8,N
1667398715.9,286046991.8,N
1667398735.8,286046990.5,Y
1667398755.6,286046995.1,P
1667398775.4,286046992.3,P
1667398795.3,286046993.0,P
1667398815.1,286046990.0,Y
1667398835.9,286047000.7,P
1667398855.7,286047004.2,N
1667398875.5,286046997.5,N
1667398895.4,286046997.3,N
1667398915.2,286046998.3,N
1667398935.1,286047001.2,N
1667398936.0,286047001.2,N
1667398955.8,286047005.1,N
1667398975.6,286047004.6,N
1667398995.5,286047009.0,N
1667399015.3,286047013.6,Y
1667399035.1,286047009.4,P
1667399055.9,286047005.1,N
1667399075.7,286047002.5,N
1667399095.6,286047004.7,N
1667399115.4,286047003.1,N
1667399135.2,286047006.8,N
1667399155.1,286047007.9,Y
1667399156.0,286047007.9,P
1667399175.8,286047003.9,N
1667399195.7,286047001.5,N
1667399215.5,286047003.9,N
1667399235.3,286047000.4,N
1667399255.2,286046999.3,N
1667399275.9,286046999.1,N
1667399295.7,286046995.1,N
1667399315.6,286046991.6,N
1667399335.4,286046987.7,N
1667399355.2,286046984.3,N
1667399375.1,286046992.7,N
1667399376.0,286046992.7,N
1667399395.8,286046988.7,N
1667399415.7,286046991.6,N
1667399435.5,286046993.3,N
1667399455.3,286046996.3,N
1667399475.2,286046991.5,N
1667399495.0,286046985.8,N
1667399495.9,286046985.8,N
1667399515.7,286046989.0,N
1667399535.6,286046994.0,N
1667399555.4,286046994.9,N
1667399575.3,286046996.3,N
1667399595.1,286046998.0,N
1667399596.0,286046998.0,N
1667399615.8,286046994.7,N
1667399635.7,286046991.4,N
1667399655.5,286046989.8,N
1667399675.3,286046985.3,N
1667399695.2,286046992.9,N
1667399715.0,286046998.4,N
1667399715.9,286046998.4,N
1667399735.8,286046997.0,N
1667399755.6,286046995.1,N
1667399775.4,286046992.1,N
1667399795.3,286046987.0,Y
1667399815.1,286046994.8,P
1667399835.9,286046994.9,P
1667399855.7,286046992.5,P
1667399875.5,286046996.3,Y
1667399895.4,286047005.4,P
1667399915.2,286047008.6,N
1667399935.0,286047010.9,N
1667399936.0,286047010.9,N
1667399955.8,286047010.0,N
1667399975.6,286047005.8,N
1667399995.5,286047008.5,N
1667400015.3,286047009.9,N
1667400035.1,286047012.3,N
1667400055.9,286047007.8,N
1667400075.7,286047010.3,N
1667400095.6,286047005.5,N
1667400115.4,286047002.7,N
1667400135.2,286047000.7,N
1667400155.1,286046994.9,N
1667400156.0,286046994.9,N
1667400175.8,286046995.6,N
1667400195.6,286047000.5,N
1667400215.5,286046999.2,N
1667400235.3,286046997.0,N
1667400255.2,286046998.9,N
1667400275.9,286047004.1,N
1667400295.7,286047004.0,N
1667400315.6,286047003.7,N
1667400335.4,286047002.5,N
1667400355.2,286047002.9,N
1667400375.1,286047006.9,N
1667400376.0,286047006.9,N
1667400395.8,286047004.8,N
1667400415.7,286047003.3,N
1667400435.5,286047003.9,N
1667400455.3,286046998.5,N
1667400475.2,286047000.7,N
1667400495.0,286047000.3,N
1667400495.9,286047000.3,N
1667400515.7,286046999.8,N
1667400535.6,286046998.1,N
1667400555.4,286046998.4,N
1667400575.3,286047001.5,N
1667400595.1,286047002.5,N
1667400596.0,286047002.5,N
1667400615.8,286046999.3,N
1667400635.7,286047000.7,N
1667400655.5,286046996.5,N
1667400675.3,286047003.5,N
1667400695.2,286047003.5,N
1667400715.0,286047001.1,N
1667400715.9,286047001.1,N
1667400735.8,286047003.6,N
1667400755.6,286046999.1,N
1667400775.4,286047001.9,N
1667400795.3,286047007.5,Y
1667400815.1,286047006.1,P
1667400835.8,286047008.4,P
1667400855.7,286047008.2,P
1667400875.5,286047005.9,N
1667400895.4,286047004.3,N
1667400915.2,286046999.7,N
1667400935.0,286047000.4,N
1667400935.9,286047000.4,N
1667400955.8,286047001.5,N
1667400975.6,286047001.6,N
1667400995.4,286047006.9,N
1667401015.3,286047006.7,N
1667401035.1,286047004.4,N
1667401055.9,286046997.9,N
1667401075.7,286046991.9,N
1667401095.5,286046993.2,N
1667401115.4,286046990.8,N
1667401135.2,286046987.0,N
1667401155.0,286046990.0,N
1667401155.9,286046990.0,N
1667401175.8,286046994.8,N
1667401195.6,286046997.7,N
